EW6223 Weather Reports


time (UTC)temp
F
wind
direction
speed
knots
gust
knots
rain 1hr
in
rain 24hr
in
rain mn
in
humidity
%
barometer
mb
20260505223010 89 155 0.0 3.5 0.00 0.00 0.00 39 999.2
20260505221505 89 205 1.7 3.5 0.00 0.00 0.00 39 1004.3
20260505220009 88 213 1.7 3.5 0.00 0.00 0.00 39 1002.9
20260505214503 88 191 1.7 4.3 0.00 0.00 0.00 40 1003.2
20260505213002 88 218 1.7 5.2 0.00 0.00 0.00 40 1003.2
20260505211502 87 207 1.7 4.3 0.00 0.00 0.00 41 1004.6
20260505210003 88 322 2.6 5.2 0.00 0.00 0.00 42 1003.9
20260505204602 88 212 2.6 6.1 0.00 0.00 0.00 41 1005.2
20260505203104 88 201 2.6 6.1 0.00 0.00 0.00 38 1004.9
20260505201608 89 182 1.7 5.2 0.00 0.00 0.00 40 1005.4
20260505200104 88 258 0.9 5.2 0.00 0.00 0.00 40 1005.5
20260505194523 87 254 2.6 6.1 0.00 0.00 0.00 42 1003.5
20260505193023 87 255 1.7 4.3 0.00 0.00 0.00 42 1003.5
20260505191521 87 260 1.7 4.3 0.00 0.00 0.00 42 1004.6
20260505190018 86 262 2.6 6.1 0.00 0.00 0.00 42 998.2
20260505184524 86 261 2.6 7.8 0.00 0.00 0.00 43 1000.0
20260505183032 85 228 2.6 4.3 0.00 0.00 0.00 45 1001.3
20260505181507 84 199 1.7 6.1 0.00 0.00 0.00 45 1006.7
20260505180003 83 293 1.7 4.3 0.00 0.00 0.00 48 1001.3
20260505174601 82 286 1.7 6.1 0.00 0.00 0.00 54 1001.3
20260505173057 81 293 2.6 5.2 0.00 0.00 0.00 52 1004.8
20260505171552 81 300 2.6 5.2 0.00 0.00 0.00 55 1002.5
20260505170051 80 235 2.6 6.1 0.00 0.00 0.00 58 1002.5
20260505164551 80 254 2.6 6.1 0.00 0.00 0.00 59 1007.0
20260505163047 80 335 2.6 6.1 0.00 0.00 0.00 60 1007.1
20260505161543 79 247 2.6 5.2 0.00 0.00 0.00 62 1002.6
20260505153039 78 251 1.7 6.1 0.00 0.00 0.00 64 1001.3
20260505151534 76 264 2.6 6.1 0.00 0.00 0.00 65 1003.4
20260505124524 0 0.0 0.0 0.00 0.00 0.00 1005.3
20260505123017 0 0.0 0.0 0.00 0.00 0.00 1005.1
20260505121513 0 0.0 0.0 0.00 0.00 0.00 1005.0
20260505120012 73 56 0.9 3.5 0.00 0.00 0.00 83 1004.9
20260505114511 73 46 0.9 4.3 0.00 0.00 0.00 83 1004.8
20260505113008 73 336 0.0 0.9 0.00 0.00 0.00 82 1004.9
20260505111508 72 336 0.0 1.7 0.00 0.00 0.00 81 1004.9
20260505101508 73 278 0.0 2.6 0.00 0.00 0.00 81 1004.7
20260505100005 74 278 0.0 0.0 0.00 0.00 0.00 80 1004.8
20260505094505 73 278 0.0 0.9 0.00 0.00 0.00 79 1004.6
20260505093103 72 278 0.0 0.9 0.00 0.00 0.00 78 1004.6
20260505091612 71 278 0.0 0.9 0.00 0.00 0.00 76 1004.7
20260505090057 69 278 0.0 2.6 0.00 0.00 0.00 74 1004.8
20260505084556 69 277 1.7 3.5 0.00 0.00 0.00 71 1004.9
20260505083051 70 287 1.7 4.3 0.00 0.00 0.00 71 1005.0
20260505081553 72 302 0.0 0.0 0.00 0.00 0.00 75 1004.9
20260505080055 71 302 0.0 0.0 0.00 0.00 0.00 74 1005.0
20260505074549 70 301 0.0 0.9 0.00 0.00 0.00 70 1004.9
20260505073029 71 302 0.0 2.6 0.00 0.00 0.00 70 1004.9
20260505071518 71 302 0.0 1.7 0.00 0.00 0.00 72 1004.9
20260505070027 71 302 0.0 2.6 0.00 0.00 0.00 73 1004.1
20260505064515 71 301 0.0 3.5 0.00 0.00 0.00 72 1004.4
20260505063014 70 301 0.0 3.5 0.00 0.00 0.00 70 1001.8
20260505061519 71 301 0.0 1.7 0.00 0.00 0.00 72 1003.6
20260505060011 71 301 0.0 0.0 0.00 0.00 0.00 71 1003.9
20260505054511 70 301 0.9 4.3 0.00 0.00 0.00 69 1004.7
20260505053012 70 302 0.9 5.2 0.00 0.00 0.00 70 1003.0
20260505051512 70 282 2.6 6.1 0.00 0.00 0.00 70 1003.3
20260505041558 75 322 0.0 0.9 0.00 0.00 0.00 67 1002.1
20260505040033 75 322 0.0 0.0 0.00 0.00 0.00 64 1002.1
20260505034524 75 322 0.0 0.0 0.00 0.00 0.00 63 992.9
20260505033020 75 322 0.0 1.7 0.00 0.00 0.00 62 1003.6
20260505031533 75 321 0.0 0.0 0.00 0.00 0.00 63 1002.9
20260505030017 76 322 0.0 0.0 0.00 0.00 0.00 64 1000.3
20260505024517 75 322 0.0 1.7 0.00 0.00 0.00 65 999.7
20260505023013 75 308 1.7 7.0 0.00 0.00 0.00 63 991.2
20260505021513 75 308 2.6 5.2 0.00 0.00 0.00 63 1000.1
20260505020012 76 289 1.7 4.3 0.00 0.00 0.00 61 1000.1
20260505014511 77 289 2.6 4.3 0.00 0.00 0.00 60 999.3
20260505013011 78 279 2.6 6.1 0.00 0.00 0.00 58 995.3
20260505011508 79 294 1.7 6.1 0.00 0.00 0.00 57 996.7
20260505010009 80 255 1.7 6.1 0.00 0.00 0.00 57 999.3
20260505010007 80 252 1.7 6.1 0.00 0.00 0.00 57 999.3
20260505004507 79 254 2.6 7.0 0.00 0.00 0.00 57 999.3
20260505003006 80 260 2.6 6.1 0.00 0.00 0.00 56 999.1
20260505001536 81 258 2.6 6.1 0.00 0.00 0.00 53 999.1
20260505000048 83 223 1.7 4.3 0.00 0.00 0.00 50 997.7
20260504234538 84 295 2.6 4.3 0.00 0.00 0.00 47 994.0
20260504233048 84 265 2.6 4.3 0.00 0.00 0.00 47 1004.3
20260504231534 86 255 1.7 5.2 0.00 0.00 0.00 47 1003.6
20260504230036 85 191 0.0 2.6 0.00 0.00 0.00 53 1003.9
20260504224534 84 110 0.9 3.5 0.00 0.00 0.00 56 1001.3